Location: Ravencliff
(37.6982°N, 81.4812°W)
Time: 03:26:32
(UTC+00:00)

ISS - Visible Passes

Search period start: 15 April 2026 00:00
Search period end: 25 April 2026 00:00
Orbit: 415 x 424 km, 51.6° (Epoch: 14 April)

Date Brightness Start Highest point End Pass type
(mag) Time Alt. Az. Time Alt. Az. Time Alt. Az.
15 Apr -2.2 10:20:41 10° SSW 10:23:42 32° SE 10:26:46 10° ENE visible
16 Apr -1.4 09:34:05 10° S 09:36:28 18° SE 09:38:52 10° E visible
17 Apr -0.9 08:48:53 10° SE 08:49:16 10° SE 08:49:39 10° ESE visible
18 Apr -3.4 09:36:20 23° SSW 09:38:14 61° SE 09:41:34 10° ENE visible
19 Apr -2.5 08:50:57 32° SE 08:50:57 32° SE 08:53:57 10° ENE visible
20 Apr -0.7 08:05:28 13° E 08:05:28 13° E 08:06:01 10° E visible
20 Apr -3.0 09:38:26 22° W 09:40:11 41° NW 09:43:25 10° NE visible
21 Apr -3.7 08:52:51 70° NNW 08:52:51 70° NNW 08:56:04 10° NE visible
22 Apr -1.3 08:07:12 22° ENE 08:07:12 22° ENE 08:08:36 10° ENE visible
22 Apr -1.7 09:40:10 11° WNW 09:42:20 19° NNW 09:44:48 10° NNE visible
23 Apr -2.3 08:54:26 26° NW 08:54:42 26° NNW 08:57:37 10° NNE visible
24 Apr -1.5 08:08:40 24° NNE 08:08:40 24° NNE 08:10:19 10° NE visible
24 Apr -1.0 09:43:39 10° NNW 09:44:39 11° NNW 09:45:38 10° N visible
